GW0206 Weather Reports


time (UTC)temp
F
wind
direction
speed
knots
gust
knots
rain 1hr
in
rain 24hr
in
rain mn
in
humidity
%
barometer
mb
20260505040016 63 23 5.2 13.0 0.00 0.00 0.00 69 1005.9
20260505035507 63 49 5.2 10.4 0.00 0.00 0.00 69 1006.0
20260505035006 63 47 4.3 11.3 0.00 0.00 0.00 69 1006.1
20260505034524 63 78 6.1 12.2 0.00 0.00 0.00 69 1006.0
20260505034008 63 44 5.2 14.8 0.00 0.00 0.00 69 1006.0
20260505033511 62 22 5.2 14.8 0.00 0.00 0.00 70 1005.9
20260505033016 62 67 6.1 12.2 0.00 0.00 0.00 70 1005.9
20260505032507 62 355 3.5 7.8 0.00 0.00 0.00 70 1005.9
20260505032008 62 19 2.6 8.7 0.00 0.00 0.00 70 1005.8
20260505031518 62 41 3.5 8.7 0.00 0.00 0.00 69 1005.9
20260505031007 62 26 2.6 9.6 0.00 0.00 0.00 69 1005.9
20260505030506 62 24 5.2 9.6 0.00 0.00 0.00 69 1006.0
20260505030024 62 32 3.5 9.6 0.00 0.00 0.00 69 1006.1
20260505025507 63 49 4.3 9.6 0.00 0.00 0.00 68 1006.1
20260505025007 63 54 4.3 9.6 0.00 0.00 0.00 68 1006.1
20260505024521 63 53 3.5 9.6 0.00 0.00 0.00 68 1006.1
20260505024002 63 30 3.5 9.6 0.00 0.00 0.00 68 1006.0
20260505023501 63 34 4.3 9.6 0.00 0.00 0.00 68 1006.1
20260505023005 63 49 4.3 9.6 0.00 0.00 0.00 68 1006.1
20260505022502 63 355 3.5 10.4 0.00 0.00 0.00 68 1006.1
20260505022004 63 11 5.2 10.4 0.00 0.00 0.00 68 1006.3
20260505021504 63 28 2.6 7.8 0.00 0.00 0.00 67 1006.2
20260505021003 63 15 2.6 7.8 0.00 0.00 0.00 67 1006.3
20260505020504 63 5 2.6 7.8 0.00 0.00 0.00 67 1006.3
20260505020012 63 17 3.5 9.6 0.00 0.00 0.00 67 1006.2
20260505015504 64 15 4.3 9.6 0.00 0.00 0.00 66 1006.3
20260505015004 64 22 4.3 9.6 0.00 0.00 0.00 66 1006.2
20260505014513 64 42 2.6 12.2 0.00 0.00 0.00 66 1006.2
20260505014002 64 55 5.2 12.2 0.00 0.00 0.00 65 1006.2
20260505013502 64 51 4.3 12.2 0.00 0.00 0.00 65 1006.2
20260505013004 64 28 4.3 12.2 0.00 0.00 0.00 65 1006.1
20260505012502 65 57 7.0 12.2 0.00 0.00 0.00 64 1006.1
20260505012003 65 55 4.3 12.2 0.00 0.00 0.00 64 1006.1
20260505011504 65 66 5.2 13.0 0.00 0.00 0.00 64 1006.1
20260505011004 65 24 7.8 13.0 0.00 0.00 0.00 63 1006.0
20260505010503 65 49 3.5 11.3 0.00 0.00 0.00 62 1005.8
20260505010012 66 75 6.1 13.0 0.00 0.00 0.00 62 1005.7
20260505005504 66 78 5.2 15.6 0.00 0.00 0.00 62 1005.7
20260505005004 66 39 7.8 16.5 0.00 0.00 0.00 62 1005.7
20260505004503 66 58 9.6 16.5 0.00 0.00 0.00 61 1005.7
20260505004003 66 63 7.0 17.4 0.00 0.00 0.00 61 1005.7
20260505003503 67 28 7.0 17.4 0.00 0.00 0.00 61 1005.6
20260505003012 67 38 7.8 16.5 0.00 0.00 0.00 60 1005.5
20260505002503 67 63 7.0 13.9 0.00 0.00 0.00 60 1005.4
20260505002005 67 65 8.7 14.8 0.00 0.00 0.00 60 1005.4
20260505001508 67 13 7.8 14.8 0.00 0.00 0.00 60 1005.2
20260505001005 67 32 6.1 13.9 0.00 0.00 0.00 60 1005.2
20260505000505 67 22 7.0 12.2 0.00 0.00 0.00 59 1005.2
20260505000014 67 22 7.8 12.2 0.00 0.00 0.00 59 1005.1
20260504235503 68 15 6.1 13.9 0.00 0.00 0.00 58 1005.1
20260504235003 68 14 6.1 15.6 0.00 0.00 0.00 58 1005.0
20260504234504 68 70 7.0 15.6 0.00 0.00 0.00 57 1005.0
20260504234003 69 20 7.0 16.5 0.00 0.00 0.00 57 1005.0
20260504233503 69 57 8.7 16.5 0.00 0.00 0.00 57 1005.0
20260504233005 69 72 7.0 15.6 0.00 0.00 0.00 56 1005.0
20260504232503 70 55 7.0 14.8 0.00 0.00 0.00 56 1005.0
20260504232004 70 61 8.7 13.9 0.00 0.00 0.00 55 1005.1
20260504231520 70 71 7.8 14.8 0.00 0.00 0.00 55 1005.0
20260504231003 70 61 8.7 19.1 0.00 0.00 0.00 56 1005.0
20260504230503 70 68 8.7 20.0 0.00 0.00 0.00 56 1005.1
20260504230006 70 25 7.8 21.7 0.00 0.00 0.00 56 1005.0
20260504225502 70 65 12.2 21.7 0.00 0.00 0.00 56 1005.1
20260504225003 70 61 8.7 20.9 0.00 0.00 0.00 57 1005.1
20260504224510 70 5 12.2 20.9 0.00 0.00 0.00 57 1005.2
20260504224004 70 69 8.7 19.1 0.00 0.00 0.00 57 1005.2
20260504223504 71 49 8.7 19.1 0.00 0.00 0.00 56 1005.3
20260504223011 71 26 8.7 19.1 0.00 0.00 0.00 56 1005.3
20260504222504 70 55 11.3 20.0 0.00 0.00 0.00 56 1005.2
20260504222005 70 94 7.8 20.0 0.00 0.00 0.00 57 1005.3
20260504221508 70 53 11.3 20.0 0.00 0.00 0.00 55 1005.4
20260504221006 71 63 10.4 20.9 0.00 0.00 0.00 55 1005.5
20260504220507 72 56 13.0 20.9 0.00 0.00 0.00 54 1005.5
20260504220004 72 76 9.6 16.5 0.00 0.00 0.00 55 1005.5
20260504215505 72 41 10.4 20.9 0.00 0.00 0.00 56 1005.4
20260504215004 72 53 7.0 20.9 0.00 0.00 0.00 56 1005.4
20260504214508 72 79 8.7 16.5 0.00 0.00 0.00 55 1005.4
20260504214005 72 49 7.0 16.5 0.00 0.00 0.00 55 1005.4
20260504213503 73 82 9.6 16.5 0.00 0.00 0.00 52 1005.4
20260504213007 73 67 6.1 17.4 0.00 0.00 0.00 53 1005.4
20260504212506 73 52 8.7 19.1 0.00 0.00 0.00 54 1005.3
20260504212004 73 73 11.3 19.1 0.00 0.00 0.00 54 1005.5
20260504211513 73 56 9.6 19.1 0.00 0.00 0.00 55 1005.5
20260504211003 72 63 7.8 19.1 0.00 0.00 0.00 56 1005.5
20260504210503 72 27 8.7 19.1 0.00 0.00 0.00 56 1005.6
20260504210018 72 59 9.6 22.6 0.00 0.00 0.00 57 1005.5
20260504205507 71 62 11.3 22.6 0.00 0.00 0.00 55 1005.6
20260504205006 72 74 12.2 20.9 0.00 0.00 0.00 53 1005.7
20260504204509 72 37 9.6 18.2 0.00 0.00 0.00 57 1005.8
20260504204007 71 32 8.7 16.5 0.00 0.00 0.00 55 1005.6
20260504203507 71 28 7.0 15.6 0.00 0.00 0.00 55 1005.6
20260504203028 72 5 4.3 14.8 0.00 0.00 0.00 55 1005.6
20260504202502 72 69 8.7 17.4 0.00 0.00 0.00 54 1005.8
20260504202001 72 57 9.6 17.4 0.00 0.00 0.00 53 1005.9
20260504201508 73 31 8.7 23.5 0.00 0.00 0.00 53 1005.8
20260504201003 73 75 10.4 23.5 0.00 0.00 0.00 53 1005.8
20260504200504 73 62 7.0 15.6 0.00 0.00 0.00 53 1005.9
20260504200016 73 55 8.7 16.5 0.00 0.00 0.00 53 1006.0
20260504195504 73 42 7.8 16.5 0.00 0.00 0.00 55 1006.2
20260504195004 72 62 7.0 15.6 0.00 0.00 0.00 54 1006.1
20260504194522 72 57 7.0 22.6 0.00 0.00 0.00 56 1006.2
20260504194005 71 16 9.6 22.6 0.00 0.00 0.00 54 1006.2
20260504193506 71 45 7.0 20.0 0.00 0.00 0.00 55 1006.3
20260504193017 71 53 8.7 20.0 0.00 0.00 0.00 55 1006.6
20260504192506 71 67 7.8 19.1 0.00 0.00 0.00 57 1006.6
20260504192013 71 19 8.7 19.1 0.00 0.00 0.00 56 1006.7
20260504191513 71 41 9.6 20.0 0.00 0.00 0.00 56 1006.8
20260504191002 70 59 9.6 20.9 0.00 0.00 0.00 55 1006.7
20260504190503 70 39 9.6 20.9 0.00 0.00 0.00 55 1006.8
20260504190011 70 51 10.4 20.0 0.00 0.00 0.00 54 1006.9
20260504185504 70 360 7.8 20.0 0.00 0.00 0.00 55 1006.8
20260504185007 70 24 10.4 21.7 0.00 0.00 0.00 55 1006.9
20260504184523 70 46 6.1 21.7 0.00 0.00 0.00 59 1007.0
20260504184011 70 32 11.3 19.1 0.00 0.00 0.00 55 1007.0
20260504183508 70 48 9.6 17.4 0.00 0.00 0.00 54 1007.0
20260504183020 70 53 8.7 17.4 0.00 0.00 0.00 56 1007.1
20260504182512 70 103 9.6 16.5 0.00 0.00 0.00 56 1007.0
20260504182003 69 38 8.7 16.5 0.00 0.00 0.00 58 1007.0
20260504181517 70 51 8.7 15.6 0.00 0.00 0.00 56 1007.2
20260504181012 69 85 7.8 15.6 0.00 0.00 0.00 57 1007.1
20260504180513 69 67 8.7 15.6 0.00 0.00 0.00 56 1007.2
20260504180014 69 5 7.0 14.8 0.00 0.00 0.00 56 1007.2
20260504175509 69 71 8.7 14.8 0.00 0.00 0.00 56 1007.5
20260504175005 69 69 9.6 15.6 0.00 0.00 0.00 56 1007.4
20260504174513 69 339 10.4 15.6 0.00 0.00 0.00 57 1007.6
20260504174003 68 59 7.0 18.2 0.00 0.00 0.00 54 1007.6
20260504173502 68 92 10.4 18.2 0.00 0.00 0.00 57 1007.7
20260504173005 68 15 6.1 15.6 0.00 0.00 0.00 54 1007.7
20260504172502 68 24 6.1 14.8 0.00 0.00 0.00 58 1007.7
20260504172003 68 28 7.0 13.9 0.00 0.00 0.00 54 1007.8
20260504171505 68 355 7.0 15.6 0.00 0.00 0.00 55 1007.8
20260504171003 68 44 7.8 15.6 0.00 0.00 0.00 55 1007.8
20260504170503 67 65 7.8 16.5 0.00 0.00 0.00 59 1007.9
20260504151005 62 360 5.2 12.2 0.00 0.00 0.00 61 1008.9
20260504150503 62 26 7.0 12.2 0.00 0.00 0.00 60 1008.9
20260504141006 60 29 4.3 11.3 0.00 0.00 0.00 62 1009.3
20260504140504 59 27 6.1 12.2 0.00 0.00 0.00 61 1009.3
20260504130504 56 63 6.1 11.3 0.00 0.00 0.00 62 1009.7
20260504110508 48 51 3.5 8.7 0.00 0.00 0.00 70 1009.5
20260504100514 48 347 2.6 7.0 0.00 0.00 0.00 69 1009.2
20260504082005 50 23 4.3 9.6 0.00 0.00 0.00 63 1009.9
20260504081518 50 38 3.5 9.6 0.00 0.00 0.00 63 1010.0
20260504081005 50 45 5.2 9.6 0.00 0.00 0.00 63 1010.1
20260504080502 50 24 5.2 9.6 0.00 0.00 0.00 62 1010.1
20260504050509 48 17 1.7 4.3 0.00 0.00 0.00 69 1012.2
20260504050016 48 30 2.6 4.3 0.00 0.00 0.00 69 1012.3
20260504045507 48 32 1.7 4.3 0.00 0.00 0.00 68 1012.4
20260504045007 48 17 1.7 4.3 0.00 0.00 0.00 68 1012.4
20260504044518 49 28 1.7 5.2 0.00 0.00 0.00 68 1012.4
20260504044007 49 37 2.6 5.2 0.00 0.00 0.00 67 1012.4
20260504043507 49 42 1.7 4.3 0.00 0.00 0.00 67 1012.4
20260504043038 49 31 1.7 5.2 0.00 0.00 0.00 67 1012.4
20260504042504 49 19 1.7 6.1 0.00 0.00 0.00 66 1012.4
20260504042008 50 40 2.6 6.1 0.00 0.00 0.00 66 1012.4
20260504041535 50 42 1.7 5.2 0.00 0.00 0.00 66 1012.4
20260504041009 50 59 2.6 5.2 0.00 0.00 0.00 66 1012.5
20260504040509 50 33 2.6 7.0 0.00 0.00 0.00 66 1012.7